www.pogodaiklimat.ru

Погода и климат >> Архив погоды >> Россия >> Курская область >> Тим


ПОГОДА в Тиме

  • Прогноз погоды в Тиме
  • Монитор погоды в Тиме

АРХИВ ПОГОДЫ в Тиме

Время (UTC), дата Ветер
(напр.,м/с)
 
Видим.   Явления Облачность Т
(С)
Тd
(С)
f
(%)
Тe
(С)
Тes
(С)
Комфортность P
(гПа)
Po
(гПа)
Тmin
(С)
Tmax
(С)
R
(мм)
R24
(мм)
S
(см)
03 13.08 ЮЗ 1 10 км ясно +16.2 +11.0 71 +17 +17 1019.2 988.1 +14.4
06 13.08 Ю 2 10 км 1/0
[Ci fib]
+23.5 +13.1 52 +26 +32 жарко 1017.6 987.4 +14.4
09 13.08 ЮЗ 3 10 км 6/1 1000 м
[Cu hum Ci fib]
+27.8 +12.0 38 +29 +38 жарко 1016.2 986.3
12 13.08 ЮЗ 4 10 км 8/6 1000 м
[Cu hum Ci fib]
+28.9 +13.1 38 +30 +32 жарко 1014.9 985.3
15 13.08 ЮЗ 3 10 км 4/3 1000 м
[Cu hum Ci fib]
+29.1 +14.4 41 +31 +32 жарко 1013.3 983.7
18 13.08 Ю 2 10 км 9/0
[Ac trans Ci fib]
+24.2 +15.4 58 +27 +27 жарко 1013.8 983.8 +30.2
21 13.08 ЮЗ 3 10 км 8/0
[Ci fib]
+22.8 +14.1 58 +26 +26 жарко 1012.8 982.6
00 14.08 ЮЗ 3 10 км 8/0
[Ci fib]
+22.6 +15.4 64 +27 +27 душно 1014.2 984.0
03 14.08 З 2 10 км 8/0
[Ci fib]
+20.7 +15.8 74 +25 +25 комфорт 1013.6 983.2 +20.5
06 14.08 СВ 1 10 км 6/0
[Ci fib]
+25.3 +18.2 65 +30 +37 душно 1013.3 983.4 +20.5
09 14.08 ЮЗ 1 10 км 9/1 1000 м
[Cu hum Ci fib]
+29.3 +19.1 54 +35 +47 очень
душно
1013.1 983.6
12 14.08 ЮЗ 3 10 км 3/3 1000 м
[Cu hum]
+31.1 +18.4 47 +36 +42 очень
душно
1013.3 984.0
15 14.08 ЮЗ 1 10 км 1/1 1000 м
[Cu hum]
+31.5 +17.8 44 +36 +37 очень
душно
1011.1 981.9
18 14.08 Ю 2 10 км 3/3 600 м
[Sc diur, vesp]
+26.5 +18.2 60 +31 +31 душно 1011.3 981.6 +32.2
21 14.08 Ю 2 10 км ясно +23.2 +16.6 66 +28 +28 душно 1011.4 981.4
00 15.08 Ю 2 10 км ясно +21.2 +14.4 65 +24 +24 комфорт 1013.0 982.7
03 15.08 Ю 3 10 км ясно +18.9 +14.0 73 +20 +20 1012.2 981.7 +18.7
06 15.08 Ю 3 10 км ясно +25.3 +13.2 47 +27 +33 жарко 1012.6 982.7 +18.7
09 15.08 ЮЗ 4 10 км 6/0
[Ci fib]
+29.5 +8.8 27 +29 +37 жарко 1010.4 980.9
12 15.08 Ю 3 10 км 9/0
[Ci fib]
+30.1 +9.6 28 +30 +31 жарко 1010.7 981.3
15 15.08 Ю 1 10 км 9/0
[Ci fib]
+29.5 +17.1 47 +33 +35 душно 1008.8 979.4
18 15.08 Ю 2 10 км 9/0
[Cc]
+25.0 +10.8 41 +26 +26 жарко 1009.4 979.5 +31.5
21 15.08 ЮВ 2 10 км 10/0
[Ac As]
+23.2 +12.6 51 +26 +26 жарко 1009.1 979.1
00 16.08 штиль 0 10 км слаб. ливневой дождь 10/6 600 м
[Cb cap Ac As]
+21.1 +14.1 64 +24 +24 комфорт 1009.4 979.2
03 16.08 В 1 10 км {ливн. осадки} 10/0
[Ac As]
+20.7 +14.4 67 +25 +25 комфорт 1007.7 977.5 +20.3 0.0
06 16.08 В 1 10 км {ливн. осадки} 10/0
[Ac As]
+22.3 +17.0 72 +27 +29 душно 1006.9 976.9 +20.1 0.0
09 16.08 ЮВ 2 10 км 9/0
[Ac trans Ci fib]
+28.0 +13.4 41 +30 +38 жарко 1005.8 976.4
12 16.08 Ю 3 10 км 9/0
[Ci fib]
+30.3 +11.7 32 +31 +32 жарко 1005.2 976.0
15 16.08 ЮВ 2 10 км 9/0
[Ci fib]
+29.1 +12.5 36 +30 +31 жарко 1004.6 975.3
18 16.08 ЮВ 2 10 км 9/0
[Ci fib]
+24.2 +13.2 50 +26 +26 жарко 1005.6 975.8 +30.4
21 16.08 Ю 2 10 км 9/0
[Ci sp]
+20.1 +14.6 71 +23 +23 комфорт 1006.4 976.2
00 17.08 В 1 10 км 9/0
[Ac trans Ci sp]
+18.4 +14.5 78 +20 +20 1007.7 977.3
03 17.08 В 1 10 км 9/3 600 м
[Cb cap Ac trans Ci sp]
+17.5 +14.8 84 +19 +19 1006.8 976.3 +17.3
06 17.08 СВ 2 10 км 10/3 600 м
[Cb cap Ac As]
+18.6 +15.4 82 +20 +21 1006.9 976.5 +17.3
09 17.08 Ю 2 4000 м слаб. ливневой дождь {гроза} 10/4 600 м
[Cb cap Ac As]
+18.6 +18.2 98 +20 +23 1007.9 977.6
12 17.08 Ю 1 2000 м слаб. ливневой дождь {гроза} 10/10 300 м
[Cb cap]
+19.0 +18.8 99 +22 +22 комфорт 1007.5 977.2
15 17.08 СЗ 2 2000 м гроза, ливневой дождь 10/10 300 м
[Cb calv]
+17.6 +17.5 99 +18 +18 1008.2 977.7 31
18 17.08 штиль 0 4000 м дымка {гроза, ливн. осадки} 8/4 300 м
[Cb cap Ac trans]
+17.6 +17.6 100 +18 +18 1008.4 977.9 +19.9 34
21 17.08 З 2 4000 м дымка 9/9 300 м
[Sc]
+16.2 +16.2 100 +16 +16 1008.7 978.0
00 18.08 З 1 2000 м дымка 10/10 200 м
[St]
+15.1 +15.0 99 +16 +16 1009.4 978.6
03 18.08 З 2 1000 м дымка {туман} 10/10 200 м
[St]
+14.6 +14.5 99 +14 +14 1010.1 979.2 +14.4 3
06 18.08 З 1 4000 м дымка {туман} 10/10 300 м
[St]
+15.0 +14.9 99 +15 +15 1011.0 980.1 +14.2 0.1
09 18.08 ЮЗ 2 10 км 10/10 600 м
[St]
+16.9 +14.8 87 +17 +17 1011.7 981.0
12 18.08 З 2 10 км 10 баллов +19.4 +15.1 76 +22 +22 комфорт 1013.2 982.7
15 18.08 З 2 10 км 10/6 600 м
[St Ac As]
+19.5 +13.8 70 +22 +22 комфорт 1013.5 983.0 0.0
18 18.08 СЗ 1 4000 м дымка 10/10 600 м
[Sc]
+15.9 +14.4 91 +17 +17 1015.2 984.3 +20.0
21 18.08 Ю 1 2000 м дымка 3/0
[Ci fib]
+12.9 +12.8 99 +13 +13 1016.9 985.5
00 19.08 СЗ 1 2000 м дымка 3/0
[Ci fib]
+13.6 +13.6 100 +14 +14 1016.6 985.4
03 19.08 штиль 0 2000 м дымка 6/5 600 м
[Sc Ac trans]
+12.7 +12.7 100 +12 +12 1018.7 987.3 +12.5
06 19.08 СЗ 3 10 км ясно +17.5 +14.2 81 +18 +23 1020.2 989.3 +12.5
09 19.08 С 2 10 км 6/6 1000 м
[Cu med, cong]
+21.3 +15.1 68 +24 +30 комфорт 1019.1 988.6
12 19.08 С 2 10 км 6 баллов +23.9 +14.6 56 +27 +30 жарко 1019.5 989.3
15 19.08 СВ 1 10 км ясно +24.4 +13.7 51 +27 +28 жарко 1019.1 988.9
18 19.08 штиль 0 10 км ясно +18.8 +14.7 77 +20 +20 1020.8 990.0 +24.7
21 19.08 СЗ 1 10 км ясно +18.1 +13.7 75 +19 +19 1021.4 990.5

 

Местоположение метеостанции Тим (Курская область, Россия): широта 51.62 долгота 37.13 высота над уровнем моря 264 м.

В архиве по умолчанию представлена погода в Тиме за последнюю неделю. Архивные данные за месяц целиком и за предыдущие месяцы, начиная с января 2011 года, Вы можете получить, выбрав интересующий диапазон дат из раскрывающегося списка и нажав кнопку "Ввод!".


*Определитесь, кто Вы:
робот инопланетянин человек

Внимание! Время в таблицах - всемирное. Для получения местного времени необходимо прибавить поправку, которая равна 3 ч.

Смотрите также архив погоды в соседних городах и на ближайших метеорологических станциях:

Погода в Богородицком (Белгородская область, Россия) (52 км)
Погода в Старом Осколе (Белгородская область, Россия) (63 км)
Погода в Курске (Курская область, Россия) (68 км)
Погода в Обояни (Курская область, Россия) (73 км)
Погода в Нижнедевицке (Воронежская область, Россия) (87 км)
Погода в Ливнах (Орловская область, Россия) (96 км)
Погода в Понырях (Курская область, Россия) (96 км)
Погода в Курчатове (Курская область, Россия) (100 км)
Погода в Фатеже (Курская область, Россия) (101 км)
Погода в Новом Осколе (Белгородская область, Россия) (110 км)

Пояснения к столбцам:

Ветер - указаны скорость ветра в м/с - средняя за 10 мин, порывы в срок и между сроками (в фигурных скобках) и направление, откуда дует ветер: С - северный, СВ - северо-восточный, В - восточный, ЮВ - юго-восточный, Ю - южный, ЮЗ - юго-западный, З - западный, СЗ - северо-западный.
Видимость - горизонтальная дальность видимости в метрах или километрах. При видимости от 1 до 10 км при отсутствии осадков обычно наблюдается дымка, при ухудшении видимости до 1 км и менее - туман. В сухую погоду видимость может ухудшаться дымом, пылью или мглою.
Явления - указаны атмосферные явления, наблюдавшиеся в срок или в последний час перед сроком; фигурными скобками обозначены явления, наблюдавшиеся между сроками (за 1-3 часа до срока); квадратными скобками обозначены град или гололедные отложения с указанием их диаметра в мм.
Облачность - указаны через наклонную черту общая и нижняя облачность в баллах и высота нижней границы облаков в метрах; квадратными скобками обозначены формы облаков: Ci - перистые, Cs - перисто-слоистые, Cc - перисто-кучевые, Ac - высококучевые, As - высокослоистые, Sc - слоисто-кучевые, Ns - слоисто-дождевые, Cu - кучевые, Cb - кучево-дождевые. Подробнее классификацию облаков см. в Атласе облаков (PDF).
T - Температура воздуха - температура, измеренная на высоте 2 м над землей.
Td - Температура точки росы - температура, при понижении до которой содержащийся в воздухе водяной пар достигнет насыщения.
f - Относительная влажность воздуха - влажноcть воздуха, измеренная на высоте 2 м над землей.
Te - Эффективная температура - температура, которую ощущает одетый по сезону человек в тени. Характеристика душности погоды. При расчете учитывается влияние влажности воздуха и скорости ветра на теплоощущения человека.
Tes - Эффективная температура на солнце - температура, которую ощущает человек, с поправкой на солнечный нагрев. Характеристика знойности погоды. Зависит от высоты солнца над горизонтом, облачности и скорости ветра. Ночью, в пасмурную погоду, а также при ветре 12 м/с и более поправка равна нулю.
P - Атмосферное давление - приведенное к уровню моря атмосферное давление.
Po - Атмосферное давление - измеренное на уровне метеостанции атмосферное давление.
Tmin - Минимальная температура - минимум температуры воздуха на высоте 2 м над землей.
Tmax - Максимальная температура - максимум температуры воздуха на высоте 2 м над землей.
R - Количество осадков - Количество выпавших осадков за период времени, мм. При наведении курсора мыши на число - период времени, за который выпало указанное количество осадков.
R24 - Количество осадков - Количество выпавших осадков за 24 часа, мм.
S - Снежный покров - Высота снежного покрова, см. При наведении курсора мыши на число - состояние снежного покрова и степень покрытия местности в баллах.